• In Hungary
  • List of Countries
  • For 7 days
  • Water Temperature
  • Satellite Maps
  • Weather Map
  • News
  • Weather Widgets
  • user-avatar
    Login

    Hourly Weather Pozarevac

    Today, 14 December, Thursday

    Time Temperature Precipitation Wind Pressure Humidity
    00:00 +4°C° 0 mm 1 mps 753 mmHg 89%
    01:00 +3°C° 0 mm 1 mps 752 mmHg 91%
    02:00 +3°C° 0 mm 1 mps 752 mmHg 90%
    03:00 +3°C° 0 mm 2 mps 752 mmHg 90%
    04:00 +3°C° 0 mm 2 mps 752 mmHg 89%
    05:00 +3°C° 0 mm 2 mps 752 mmHg 89%
    06:00 +3°C° 0 mm 2 mps 751 mmHg 89%
    07:00 +3°C° 0 mm 2 mps 751 mmHg 89%
    08:00 +5°C° 0 mm 2 mps 750 mmHg 84%
    09:00 +6°C° 0 mm 2 mps 750 mmHg 79%
    10:00 +8°C° 0 mm 3 mps 750 mmHg 74%
    11:00 +9°C° 0 mm 3 mps 750 mmHg 69%
    12:00 +10°C° 0 mm 3 mps 750 mmHg 65%
    13:00 +11°C° 0 mm 3 mps 750 mmHg 61%
    14:00 +12°C° 0.4 mm 2 mps 750 mmHg 67%
    15:00 +10°C° 0.4 mm 2 mps 750 mmHg 73%
    16:00 +9°C° 0.4 mm 2 mps 750 mmHg 78%
    17:00 +9°C° 0.5 mm 2 mps 750 mmHg 79%
    18:00 +9°C° 0.5 mm 3 mps 750 mmHg 80%
    19:00 +9°C° 0.5 mm 3 mps 749 mmHg 81%
    20:00 +9°C° 0.3 mm 3 mps 749 mmHg 81%
    21:00 +9°C° 0.3 mm 3 mps 749 mmHg 81%
    22:00 +9°C° 0.3 mm 3 mps 749 mmHg 81%
    23:00 +9°C° 0.1 mm 3 mps 749 mmHg 79%

    Tomorrow, 15 December, Friday

    Time Temperature Precipitation Wind Pressure Humidity
    00:00 +8°C° 0.1 mm 3 mps 749 mmHg 77%
    01:00 +8°C° 0.1 mm 3 mps 748 mmHg 76%
    02:00 +7°C° 0 mm 4 mps 748 mmHg 75%
    03:00 +7°C° 0 mm 4 mps 748 mmHg 75%
    04:00 +7°C° 0 mm 4 mps 748 mmHg 75%
    05:00 +7°C° 0 mm 4 mps 748 mmHg 75%
    06:00 +7°C° 0 mm 4 mps 748 mmHg 75%
    07:00 +7°C° 0 mm 5 mps 748 mmHg 75%
    08:00 +8°C° 0 mm 5 mps 748 mmHg 71%
    09:00 +9°C° 0 mm 6 mps 748 mmHg 66%
    10:00 +11°C° 0 mm 6 mps 748 mmHg 62%
    11:00 +11°C° 0 mm 6 mps 747 mmHg 61%
    12:00 +13°C° 0 mm 6 mps 747 mmHg 60%
    13:00 +14°C° 0 mm 6 mps 746 mmHg 58%
    14:00 +13°C° 0.4 mm 6 mps 746 mmHg 63%
    15:00 +12°C° 0.4 mm 5 mps 746 mmHg 68%
    16:00 +10°C° 0.4 mm 5 mps 746 mmHg 72%
    17:00 +10°C° 0.5 mm 5 mps 745 mmHg 74%
    18:00 +10°C° 0.5 mm 5 mps 745 mmHg 76%
    19:00 +10°C° 0.5 mm 6 mps 745 mmHg 77%
    20:00 +10°C° 0.6 mm 6 mps 744 mmHg 77%
    21:00 +10°C° 0.6 mm 5 mps 744 mmHg 76%
    22:00 +9°C° 0.6 mm 5 mps 744 mmHg 76%
    23:00 +9°C° 0.2 mm 6 mps 743 mmHg 75%

    Day after tomorrow, 16 December, Saturday

    Time Temperature Precipitation Wind Pressure Humidity
    00:00 +9°C° 0.2 mm 6 mps 743 mmHg 73%
    01:00 +9°C° 0.2 mm 6 mps 742 mmHg 72%
    02:00 +9°C° 0 mm 6 mps 742 mmHg 73%
    03:00 +9°C° 0 mm 5 mps 742 mmHg 74%
    04:00 +9°C° 0 mm 5 mps 741 mmHg 76%
    05:00 +8°C° 0 mm 4 mps 742 mmHg 77%
    06:00 +8°C° 0 mm 4 mps 742 mmHg 79%
    07:00 +9°C° 0 mm 3 mps 742 mmHg 81%
    08:00 +9°C° 0.2 mm 3 mps 743 mmHg 81%
    09:00 +9°C° 0.2 mm 3 mps 744 mmHg 81%
    10:00 +9°C° 0.2 mm 3 mps 744 mmHg 81%
    11:00 +8°C° 0.6 mm 3 mps 745 mmHg 81%
    12:00 +7°C° 0.6 mm 3 mps 745 mmHg 81%
    13:00 +5°C° 0.6 mm 3 mps 746 mmHg 82%
    14:00 +5°C° 0.4 mm 3 mps 746 mmHg 81%
    15:00 +6°C° 0.4 mm 2 mps 747 mmHg 81%
    16:00 +6°C° 0.4 mm 2 mps 747 mmHg 80%
    17:00 +6°C° 0.1 mm 2 mps 748 mmHg 80%
    18:00 +5°C° 0.1 mm 2 mps 748 mmHg 81%
    19:00 +5°C° 0.1 mm 2 mps 749 mmHg 81%
    20:00 +5°C° 0 mm 2 mps 749 mmHg 80%
    21:00 +5°C° 0 mm 2 mps 750 mmHg 80%
    22:00 +4°C° 0 mm 3 mps 750 mmHg 80%
    23:00 +3°C° 0.1 mm 3 mps 750 mmHg 81%

    17 December, Sunday

    Time Temperature Precipitation Wind Pressure Humidity
    00:00 +3°C° 0.1 mm 3 mps 750 mmHg 82%
    01:00 +3°C° 0.1 mm 3 mps 751 mmHg 83%
    02:00 +3°C° 0.1 mm 3 mps 751 mmHg 84%
    03:00 +2°C° 0.1 mm 3 mps 751 mmHg 85%
    04:00 +1°C° 0.1 mm 4 mps 751 mmHg 86%
    05:00 0°C° 0 mm 4 mps 752 mmHg 86%
    06:00 0°C° 0 mm 4 mps 752 mmHg 87%
    07:00 +1°C° 0 mm 3 mps 753 mmHg 88%
    08:00 0°C° 0 mm 4 mps 753 mmHg 85%
    09:00 0°C° 0 mm 4 mps 753 mmHg 81%
    10:00 +1°C° 0 mm 5 mps 754 mmHg 78%
    11:00 +1°C° 0 mm 5 mps 754 mmHg 76%
    12:00 +1°C° 0 mm 5 mps 754 mmHg 75%
    13:00 +2°C° 0 mm 5 mps 755 mmHg 73%
    14:00 +2°C° 0 mm 5 mps 755 mmHg 74%
    15:00 +2°C° 0 mm 5 mps 756 mmHg 75%
    16:00 +1°C° 0 mm 4 mps 756 mmHg 76%
    17:00 +1°C° 0.1 mm 4 mps 757 mmHg 76%
    18:00 +1°C° 0.1 mm 5 mps 757 mmHg 76%
    19:00 +1°C° 0.1 mm 5 mps 758 mmHg 76%
    20:00 +1°C° 0 mm 4 mps 758 mmHg 78%
    21:00 0°C° 0 mm 4 mps 759 mmHg 79%
    22:00 0°C° 0 mm 4 mps 759 mmHg 81%
    23:00 -1°C° 0 mm 4 mps 760 mmHg 82%

    18 December, Monday

    Time Temperature Precipitation Wind Pressure Humidity
    00:00 0°C° 0 mm 3 mps 760 mmHg 84%
    01:00 -1°C° 0 mm 3 mps 760 mmHg 85%
    02:00 -1°C° 0 mm 3 mps 760 mmHg 85%
    03:00 -1°C° 0 mm 3 mps 760 mmHg 86%
    04:00 -1°C° 0 mm 3 mps 761 mmHg 86%
    05:00 -1°C° 0 mm 3 mps 761 mmHg 85%
    06:00 -1°C° 0 mm 3 mps 761 mmHg 85%
    07:00 -1°C° 0 mm 3 mps 762 mmHg 84%
    08:00 -1°C° 0 mm 3 mps 762 mmHg 81%
    09:00 0°C° 0 mm 3 mps 762 mmHg 77%
    10:00 0°C° 0 mm 4 mps 762 mmHg 73%
    11:00 +1°C° 0 mm 3 mps 761 mmHg 72%
    12:00 +2°C° 0 mm 3 mps 761 mmHg 70%
    13:00 +2°C° 0 mm 3 mps 760 mmHg 68%
    14:00 +2°C° 0 mm 3 mps 760 mmHg 70%
    15:00 +2°C° 0 mm 2 mps 760 mmHg 72%
    16:00 +3°C° 0 mm 1 mps 759 mmHg 74%
    17:00 +3°C° 0 mm 1 mps 759 mmHg 76%
    18:00 +1°C° 0 mm 2 mps 759 mmHg 77%
    19:00 +1°C° 0 mm 2 mps 759 mmHg 79%
    20:00 +1°C° 0 mm 2 mps 759 mmHg 78%
    21:00 +1°C° 0 mm 2 mps 759 mmHg 77%
    22:00 0°C° 0 mm 3 mps 759 mmHg 76%
    23:00 0°C° 0 mm 3 mps 759 mmHg 75%

    19 December, Tuesday

    Time Temperature Precipitation Wind Pressure Humidity
    00:00 0°C° 0 mm 3 mps 759 mmHg 74%
    01:00 0°C° 0 mm 3 mps 759 mmHg 73%
    02:00 0°C° 0 mm 3 mps 759 mmHg 73%
    03:00 +1°C° 0 mm 3 mps 759 mmHg 72%
    04:00 +1°C° 0 mm 3 mps 759 mmHg 72%
    05:00 +1°C° 0.1 mm 3 mps 759 mmHg 74%
    06:00 +1°C° 0.1 mm 3 mps 760 mmHg 75%
    07:00 +1°C° 0.1 mm 3 mps 760 mmHg 77%
    08:00 +1°C° 0.5 mm 3 mps 760 mmHg 78%
    09:00 +1°C° 0.5 mm 3 mps 760 mmHg 80%
    10:00 +2°C° 0.5 mm 3 mps 761 mmHg 81%
    11:00 +2°C° 0.4 mm 3 mps 761 mmHg 83%
    12:00 +2°C° 0.4 mm 3 mps 761 mmHg 86%
    13:00 +2°C° 0.4 mm 3 mps 761 mmHg 88%
    14:00 +2°C° 0.3 mm 3 mps 761 mmHg 89%
    15:00 +1°C° 0.3 mm 3 mps 761 mmHg 90%
    16:00 +1°C° 0.3 mm 3 mps 761 mmHg 91%
    17:00 0°C° 0.3 mm 4 mps 762 mmHg 91%
    18:00 0°C° 0.3 mm 4 mps 762 mmHg 92%
    19:00 -1°C° 0.3 mm 4 mps 763 mmHg 92%
    20:00 -1°C° 0.3 mm 4 mps 763 mmHg 92%
    21:00 -1°C° 0.3 mm 4 mps 763 mmHg 92%
    22:00 -1°C° 0.3 mm 4 mps 763 mmHg 92%
    23:00 -1°C° 0.2 mm 4 mps 763 mmHg 91%
    Show more